Location: Newark
(30.0333°N, 31.2167°E)
Time: 04:08:59
(UTC+00:00)

Tiros 1 despin weight - Pass Details

Date: 26 January 2020
Orbit: 594 x 642 km, 48.2° (Epoch: 17 February)

Event Time Altitude Azimuth Distance (km) Brightness Sun altitude
Rises 09:57:55 0° 285° (WNW) 2,859 ? 41.1°
Reaches altitude 10° 10:01:33 10° 315° (NW) 1,969 ? 41.2°
Maximum altitude 10:03:28 12° 340° (NNW) 1,818 ? 41.2°
Drops below altitude 10° 10:05:24 10° 6° (N) 1,984 ? 41.2°
Sets 10:09:07 0° 36° (NE) 2,905 ? 41.2°
